User: anonymous   Login
Location: Unspecified
(0.0000°N, 0.0000°E)
Time: 03:00:38
(UTC+00:00)
Language:

Oscar 15 - Orbit

View from above orbital plane
View from above orbital plane
View from above satellite
View from above satellite

Ground track
Ground track

The orbit data is extracted from the following two-line orbital elements,

1 20438U 90005C   17324.49084108 +.00000001 +00000-0 +17557-4 0  9992
2 20438 098.7319 272.6890 0010670 132.2828 341.7644 14.31001873452402
Epoch (UTC): 20 November 2017 11:46:48
Eccentricity: 0.0010670
inclination: 98.7319°
perigee height: 781 km
apogee height: 796 km
right ascension of ascending node: 272.6890°
argument of perigee: 132.2828°
revolutions per day: 14.31001873
mean anomaly at epoch: 341.7644°
orbit number at epoch: 45240

The dashed part of the orbit path shows where the satellite is in the earth's shadow,  

DLR